"Pseudo-MPEC" for ZTF02s0

Created 2019 Feb 20 14:18:13 UT using Find_Orb

Click here for an explanation of pseudo-MPECs

 
 Astrometry: 
     ZTF02s0  C2019 02 09.25299609 32 04.70 +15 49 32.4    ~2A0X 19.20RUNEOCPI41
     ZTF02s0  C2019 02 09.25334309 32 03.35 +15 49 38.6    ~2A0X 19.20RUNEOCPI41
     ZTF02s0  C2019 02 09.26451209 31 22.58 +15 53 00.2    ~2A0X 19.02RUNEOCPI41
     ZTF02s0  C2019 02 09.26486009 31 21.26 +15 53 06.5    ~2A0X 19.02RUNEOCPI41
     ZTF02s0  C2019 02 09.28475209 30 07.69 +15 59 02.7    ~2E3I 18.88RUNEOCPI41
     ZTF02s0  C2019 02 09.28509909 30 06.36 +15 59 08.5    ~2E3I 18.88RUNEOCPI41
     ZTF02s0  C2019 02 09.31520509 28 14.05 +16 07 47.7    ~2A23 19.08RUNEOCPI41
     ZTF02s0  C2019 02 09.31555209 28 12.75 +16 07 53.7    ~2A23 19.08RUNEOCPI41
     ZTF02s0  C2019 02 09.34203109 26 33.96 +16 15 08.4    ~2E3I 18.96RUNEOCPI41
     ZTF02s0  C2019 02 09.34237809 26 32.66 +16 15 14.0    ~2E3I 18.96RUNEOCPI41
     ZTF02s0  C2019 02 09.36585309 25 05.40 +16 21 24.2    ~2A23 18.93RUNEOCPI41
     ZTF02s0  C2019 02 09.36620009 25 03.98 +16 21 30.0    ~2A23 18.93RUNEOCPI41

Station data:
(I41) Palomar Mountain--ZTF  (N33.357340 W116.859780)  US/California. 1.2-m
   f/2.44 Oschin Schmidt + CCD.

Orbital elements:  ZTF02s0
   Perigee 2019 Feb 7.435924 +/- 0.11 TT = 10:27:43 (JD 2458521.935924)
Epoch 2019 Feb  9.0 TT = JDT 2458523.5                        AutoNEOCP
q558076.250 +/- 12209               (J2000 equator)
H   31.3  G 0.15                    Peri.   12.99146 +/- 2.0
                                    Node   177.92102 +/- 0.49
e   2.7763726 +/- 0.2               Incl.  153.49367 +/- 0.06
From 12 observations 2019 Feb. 9 (2.7 hr); mean residual 0".82
Residuals in arcseconds: 
190209 I41  .23-  1.0+    190209 I41  .58+  .06-    190209 I41  .73+  .22-    
190209 I41  1.4-  .84+    190209 I41  .01-  .37-    190209 I41  .65+  .20-    
190209 I41  1.4+  1.2-    190209 I41  1.1-  .64+    190209 I41  .85+  .27-    
190209 I41  .80+  1.2-    190209 I41  1.1-  .81+    190209 I41  1.1-  .17+    

Ephemerides (geocentric):
Date (UTC) HH   RA              Dec         delta   r     elong  mag " sig PA
---- -- -- --  -------------   -----------  ------ ------ -----  --- ---- ---
2019 02 20 14  05 26 05.689   +26 23 27.17  .01079 0.9926 111.0 23.9  270 144
2019 02 20 15  05 25 47.534   +26 23 15.04  .01082 0.9926 110.9 23.9  272 143
2019 02 20 16  05 25 29.476   +26 23 02.82  .01085 0.9926 110.8 23.9  274 143
2019 02 20 17  05 25 11.515   +26 22 50.53  .01088 0.9926 110.7 23.9  276 142
2019 02 20 18  05 24 53.651   +26 22 38.16  .01090 0.9926 110.6 23.9  278 142
2019 02 20 19  05 24 35.882   +26 22 25.70  .01093 0.9926 110.4 23.9  280 141
2019 02 20 20  05 24 18.208   +26 22 13.17  .01096 0.9926 110.3 23.9  282 140
2019 02 20 21  05 24 00.628   +26 22 00.57  .01099 0.9926 110.2 23.9  284 140
2019 02 20 22  05 23 43.142   +26 21 47.90  .01102 0.9926 110.1 23.9  286 139
2019 02 20 23  05 23 25.748   +26 21 35.15  .01104 0.9926 110.0 24.0  288 139
2019 02 21 00  05 23 08.446   +26 21 22.33  .01107 0.9926 109.9 24.0  291 138
2019 02 21 01  05 22 51.236   +26 21 09.45  .01110 0.9926 109.8 24.0  293 138
2019 02 21 02  05 22 34.116   +26 20 56.49  .01113 0.9926 109.7 24.0  295 137
2019 02 21 03  05 22 17.086   +26 20 43.48  .01115 0.9926 109.6 24.0  297 137
2019 02 21 04  05 22 00.145   +26 20 30.40  .01118 0.9926 109.5 24.0  300 136
2019 02 21 05  05 21 43.292   +26 20 17.25  .01121 0.9926 109.4 24.0  302 136
2019 02 21 06  05 21 26.527   +26 20 04.05  .01124 0.9926 109.3 24.0  304 135
2019 02 21 07  05 21 09.850   +26 19 50.78  .01127 0.9926 109.2 24.0  307 135
2019 02 21 08  05 20 53.259   +26 19 37.46  .01129 0.9926 109.1 24.0  309 134
2019 02 21 09  05 20 36.754   +26 19 24.08  .01132 0.9926 109.0 24.0  311 134
2019 02 21 10  05 20 20.333   +26 19 10.65  .01135 0.9926 108.9 24.1  314 133
2019 02 21 11  05 20 03.998   +26 18 57.16  .01138 0.9926 108.8 24.1  316 133
2019 02 21 12  05 19 47.746   +26 18 43.62  .01140 0.9926 108.7 24.1  318 132
2019 02 21 13  05 19 31.578   +26 18 30.03  .01143 0.9926 108.6 24.1  321 132
2019 02 21 14  05 19 15.492   +26 18 16.38  .01146 0.9926 108.4 24.1  323 132
2019 02 21 15  05 18 59.489   +26 18 02.69  .01149 0.9926 108.3 24.1  326 131
2019 02 21 16  05 18 43.567   +26 17 48.95  .01152 0.9926 108.2 24.1  328 131
2019 02 21 17  05 18 27.726   +26 17 35.16  .01154 0.9926 108.1 24.1  331 130
2019 02 21 18  05 18 11.965   +26 17 21.32  .01157 0.9926 108.0 24.1  333 130
2019 02 21 19  05 17 56.283   +26 17 07.45  .01160 0.9926 107.9 24.1  336 130
2019 02 21 20  05 17 40.681   +26 16 53.52  .01163 0.9926 107.8 24.1  338 129
2019 02 21 21  05 17 25.157   +26 16 39.56  .01165 0.9926 107.7 24.1  341 129
2019 02 21 22  05 17 09.712   +26 16 25.55  .01168 0.9926 107.6 24.2  343 128
2019 02 21 23  05 16 54.343   +26 16 11.51  .01171 0.9926 107.5 24.2  346 128
2019 02 22 00  05 16 39.052   +26 15 57.42  .01174 0.9926 107.4 24.2  348 128
2019 02 22 01  05 16 23.836   +26 15 43.30  .01177 0.9926 107.3 24.2  351 127
2019 02 22 02  05 16 08.697   +26 15 29.14  .01179 0.9926 107.2 24.2  353 127
2019 02 22 03  05 15 53.632   +26 15 14.94  .01182 0.9926 107.1 24.2  356 127
2019 02 22 04  05 15 38.643   +26 15 00.71  .01185 0.9926 107.1 24.2  358 126
2019 02 22 05  05 15 23.727   +26 14 46.44  .01188 0.9926 107.0 24.2  361 126
2019 02 22 06  05 15 08.885   +26 14 32.14  .01190 0.9926 106.9 24.2  363 125
2019 02 22 07  05 14 54.116   +26 14 17.81  .01193 0.9926 106.8 24.2  366 125
2019 02 22 08  05 14 39.420   +26 14 03.45  .01196 0.9926 106.7 24.2  369 125
2019 02 22 09  05 14 24.796   +26 13 49.06  .01199 0.9926 106.6 24.2  371 125
2019 02 22 10  05 14 10.243   +26 13 34.63  .01202 0.9926 106.5 24.3  374 124
2019 02 22 11  05 13 55.761   +26 13 20.18  .01204 0.9926 106.4 24.3  376 124
2019 02 22 12  05 13 41.350   +26 13 05.70  .01207 0.9926 106.3 24.3  379 124
2019 02 22 13  05 13 27.009   +26 12 51.20  .01210 0.9926 106.2 24.3  382 123